User: anonymous   Login
Location: Unspecified
(0.0000°N, 0.0000°E)
Time: 12:47:37
(UTC+00:00)
Language:

CFESAT - Orbit

View from above orbital plane
View from above orbital plane
View from above satellite
View from above satellite

Ground track
Ground track

The orbit data is extracted from the following two-line orbital elements,

1 30777U 07006F   18200.86180014  .00002547  00000-0  78364-4 0  9996
2 30777  35.4264  86.3425 0006345 329.7034  30.3324 15.33471298629032
Epoch (UTC): 19 July 2018 20:40:59
Eccentricity: 0.0006345
inclination: 35.4264°
perigee height: 461 km
apogee height: 470 km
right ascension of ascending node: 86.3425°
argument of perigee: 329.7034°
revolutions per day: 15.33471298
mean anomaly at epoch: 30.3324°
orbit number at epoch: 62903

The dashed part of the orbit path shows where the satellite is in the earth's shadow,  

DLR